[[{"header":{"parameterUnit":"m.s-1","parameterCategory":1,"la1":30.2991,"la2":30.254,"lo1":-89.0895,"lo2":-89.0444,"dy":0.0017,"dx":0.0017,"nx":28,"ny":28,"refTime":"2024-10-01T21:00:00:Z","depth":0,"parameterNumber":2,"parameterNumberName":"U-component_of_WINDS"},"data":[0,0,0,0,0,0,0,0,0,0,0,0,0,0,0,0,0,0,0,0,0,0,0,0,0,0,0,0,0,0,0,0,0,0,0,0,0,0,0,0,0,0,0,0,0,0,0,0,0,0,0,0,0,0,0,0,0,0,-0.9992,-0.9991,0,-0.9887,-0.9886,-0.9884,-0.9823,-0.9822,-0.9822,-0.9822,-0.9715,-0.9712,-0.9709,0,0,0,0,0,0,0,0,0,0,0,0,0,-1.014,-1.0138,-0.9992,-0.9991,-0.9989,-0.9887,-0.9885,-0.9884,-0.9823,-0.9822,-0.9822,-0.9822,-0.9715,-0.9712,-0.9709,0,0,0,0,0,0,0,0,0,0,0,0,0,-1.006,-1.0137,-0.9992,-0.9946,-0.9941,-0.9887,-0.9885,-0.9884,-0.9823,-0.9822,-0.9822,-0.9822,-0.9716,-0.9713,-0.9709,-0.9692,0,0,-0.9697,-0.9695,0,0,0,0,0,0,0,0,-1.0064,-1.0054,-0.9954,-0.9949,-0.9944,-0.9867,-0.9898,-0.9819,-0.9823,-0.9868,-0.9822,-0.9821,-0.9766,-0.9758,-0.9739,-0.9687,-0.9683,-0.9696,-0.9694,-0.9692,-0.9691,0,0,0,0,0,0,0,-1.007,-1.0058,-0.995,-0.9953,-0.9946,-0.9931,-0.9919,-0.9883,-0.982,-0.9864,-0.9859,-0.9848,-0.9763,-0.9743,-0.9736,-0.9681,-0.9696,-0.9693,-0.9691,-0.9689,-0.9612,-0.9612,0,0,0,0,0,0,-1.0083,-1.0063,-0.9954,-0.9947,-1.0004,-0.9929,-0.9916,-0.9892,-0.982,-0.9809,-0.9848,-0.9845,-0.975,-0.9741,-0.9732,-0.9709,-0.9692,-0.9689,-0.9686,-0.9612,-0.9612,-0.9612,0,0,0,0,0,0,-1.0086,-1.0074,-0.9958,-1.0004,-0.9988,-0.9927,-0.9901,-0.989,-0.987,-0.9808,-0.9797,-0.9839,-0.9749,-0.9737,-0.9703,-0.9704,-0.9687,-0.9683,-0.9611,-0.9612,-0.9612,-0.9662,0,0,0,0,0,0,-1.0091,-1.0075,-1.0068,-1.0004,-0.9986,-0.993,-0.9901,-0.9889,-0.9864,-0.9859,-0.9797,-0.9787,-0.9748,-0.9709,-0.9699,-0.9698,-0.968,-0.9611,-0.9611,-0.9612,-0.966,-0.9664,-0.9668,0,0,0,0,0,-1.0096,-1.0086,-1.0068,-1.0055,-0.9976,-0.9931,-0.992,-0.9876,-0.9864,-0.9857,-0.9817,-0.9788,-0.9706,-0.9706,-0.9694,-0.9693,-0.9611,-0.9611,-0.9612,-0.9658,-0.9664,-0.9668,0,0,0,0,0,0,-1.0151,-1.0077,-1.0056,-1.0025,-0.9985,-0.992,-0.9909,-0.9882,-0.9845,-0.9842,-0.9788,-0.9775,-0.9746,-0.9715,-0.9717,-0.9673,-0.9655,-0.9653,-0.9694,-0.9699,-0.9703,-0.9711,-0.9677,0,0,0,0,0,-1.016,-1.0129,-1.0066,-1.0045,-1.0025,-0.9971,-0.995,-0.9919,-0.9875,-0.9858,-0.9816,-0.9775,-0.9739,-0.9717,-0.9681,-0.9655,-0.9642,-0.9648,-0.9652,-0.9656,-0.9655,-0.9641,-0.9644,-0.9615,-0.9615,-0.9615,0,0,-1.0177,-1.0133,-1.0117,-1.0055,-1.002,-0.999,-0.9957,-0.9927,-0.9904,-0.9853,-0.9819,-0.9786,-0.9737,-0.9707,-0.9692,-0.9681,-0.966,-0.9657,-0.966,-0.9657,-0.9642,-0.9645,-0.9647,-0.9615,-0.9615,-0.9615,0,0,-1.0194,-1.0157,-1.0135,-1.0101,-1.0049,-1.0013,-1.0008,-0.9948,-0.9925,-0.9889,-0.9851,-0.9823,-0.9763,-0.973,-0.9705,-0.971,-0.9683,-0.97,-0.9721,-0.9707,-0.971,-0.9711,-0.9714,-0.9716,-0.97,-0.97,-0.97,0,-1.0222,-1.0175,-1.0128,-1.01,-1.0074,-1.0027,-1.0006,-0.9975,-0.9914,-0.9897,-0.9886,-0.9811,-0.9774,-0.9736,-0.9738,-0.9719,-0.9712,-0.9707,-0.9713,-0.9714,-0.9715,-0.9718,-0.9719,-0.9702,-0.9702,-0.9702,-0.9701,0,-1.0213,-1.0181,-1.017,-1.0113,-1.0086,-1.0061,-1.0011,-0.9989,-0.9961,-0.9927,-0.9892,-0.9846,-0.9801,-0.9789,-0.9761,-0.9748,-0.9743,-0.9723,-0.9704,-0.9721,-0.9723,-0.9723,-0.9706,-0.9705,-0.9704,-0.9704,0,0,-1.0261,-1.0178,-1.0175,-1.0149,-1.0089,-1.0064,-1.0037,-0.9993,-0.9976,-0.9936,-0.9913,-0.9864,-0.9845,-0.9817,-0.9785,-0.9773,-0.9782,-0.9755,-0.9753,-0.9763,-0.9767,-0.9783,-0.9785,-0.9764,-0.9763,-0.9763,-0.9771,0,-1.0269,-1.022,-1.0177,-1.0144,-1.0114,-1.007,-1.0047,-1.0008,-0.9975,-0.9946,-0.9909,-0.9876,-0.9853,-0.9837,-0.9823,-0.9784,-0.9782,-0.9783,-0.9743,-0.9742,-0.9758,-0.9785,-0.9802,-0.9812,-0.9771,-0.9771,-0.9771,0,-1.0273,-1.0235,-1.0199,-1.0142,-1.0128,-1.0109,-1.0065,-1.0037,-0.9993,-0.997,-0.9939,-0.9906,-0.9877,-0.986,-0.982,-0.9821,-0.9802,-0.9781,-0.9781,-0.9776,-0.9759,-0.9783,-0.9813,-0.9815,-0.9771,-0.9771,-0.9771,0,-1.0313,-1.0253,-1.0224,-1.0203,-1.0136,-1.0123,-1.0095,-1.0049,-1.0026,-0.9988,-0.9973,-0.9932,-0.991,-0.9879,-0.9837,-0.9828,-0.9802,-0.9781,-0.9783,-0.9784,-0.978,-0.9781,-0.981,-0.9766,-0.9766,-0.9766,-0.9766,0,-1.0328,-1.0308,-1.0241,-1.0224,-1.02,-1.0151,-1.0129,-1.0097,-1.0057,-1.0033,-0.9991,-0.9969,-0.9913,-0.9885,-0.9851,-0.9824,-0.9814,-0.9796,-0.9787,-0.98,-0.9803,-0.9788,-0.9787,-0.9766,-0.9766,-0.9766,-0.9766,0,-1.0369,-1.0324,-1.0289,-1.0229,-1.0213,-1.0199,-1.0148,-1.0129,-1.0094,-1.0064,-1.0054,-1.0,-0.9964,-0.9918,-0.9868,-0.9846,-0.9823,-0.9809,-0.9839,-0.9834,-0.9839,-0.984,-0.986,-0.9861,-0.9816,-0.9817,-0.9817,0,-1.0382,-1.0366,-1.0304,-1.0285,-1.0258,-1.0227,-1.0203,-1.0155,-1.0132,-1.008,-1.0068,-1.003,-0.9996,-0.9942,-0.9898,-0.986,-0.9846,-0.9856,-0.984,-0.9854,-0.9848,-0.985,-0.9849,-0.986,-0.9861,-0.9861,-0.9862,0,-1.0411,-1.0389,-1.0356,-1.0316,-1.0289,-1.0254,-1.0218,-1.0205,-1.0149,-1.0125,-1.0089,-1.0063,-1.0012,-0.9975,-0.9932,-0.9903,-0.9874,-0.9867,-0.9866,-0.9879,-0.9898,-0.9889,-0.9851,-0.9867,-0.9866,-0.9866,-0.9866,-0.9865,-1.0439,-1.0423,-1.0377,-1.0342,-1.031,-1.0278,-1.0258,-1.0221,-1.0189,-1.0145,-1.0118,-1.0083,-1.0039,-0.9978,-0.995,-0.9923,-0.9911,-0.9909,-0.9909,-0.9909,-0.9915,-0.9901,-0.9915,-0.9914,-0.9914,-0.9914,-0.9914,0,-1.0466,-1.0435,-1.0403,-1.0354,-1.0327,-1.0302,-1.0261,-1.024,-1.021,-1.0171,-1.014,-1.0099,-1.0063,-1.0017,-0.9978,-0.9965,-0.995,-0.9956,-0.9957,-0.9952,-0.9926,-0.9932,-0.9969,-0.9969,-0.9969,-0.9969,-0.9969,-0.9969,-1.0477,-1.0449,-1.0423,-1.0379,-1.0347,-1.0313,-1.0292,-1.0262,-1.0232,-1.0188,-1.0158,-1.0128,-1.0087,-1.0045,-1.0011,-0.9998,-0.9987,-0.9997,-0.9981,-0.9958,-0.9953,-0.9948,-0.9954,-0.9994,-0.9995,-1.0009,-1.0009,-1.0009]},{"header":{"parameterUnit":"m.s-1","parameterCategory":1,"la1":30.2991,"la2":30.254,"lo1":-89.0895,"lo2":-89.0444,"dy":0.0017,"dx":0.0017,"nx":28,"ny":28,"refTime":"2024-10-01T21:00:00:Z","depth":0,"parameterNumber":3,"parameterNumberName":"V-component_of_WINDS"},"data":[0,0,0,0,0,0,0,0,0,0,0,0,0,0,0,0,0,0,0,0,0,0,0,0,0,0,0,0,0,0,0,0,0,0,0,0,0,0,0,0,0,0,0,0,0,0,0,0,0,0,0,0,0,0,0,0,0,0,0.026,0.026,0,0.0272,0.0272,0.0272,0.0277,0.0277,0.0277,0.0277,0.0287,0.0287,0.0288,0,0,0,0,0,0,0,0,0,0,0,0,0,0.0238,0.0238,0.026,0.026,0.026,0.0272,0.0272,0.0272,0.0277,0.0277,0.0277,0.0277,0.0287,0.0287,0.0288,0,0,0,0,0,0,0,0,0,0,0,0,0,0.0248,0.0238,0.026,0.0264,0.0264,0.0272,0.0272,0.0272,0.0277,0.0277,0.0277,0.0277,0.0287,0.0287,0.0288,0.0292,0,0,0.0289,0.0289,0,0,0,0,0,0,0,0,0.0248,0.0249,0.0263,0.0263,0.0264,0.0273,0.0268,0.0279,0.0277,0.0272,0.0277,0.0276,0.0282,0.0283,0.0285,0.0292,0.0293,0.0289,0.029,0.029,0.029,0,0,0,0,0,0,0,0.0247,0.0248,0.0264,0.0263,0.0264,0.0264,0.0265,0.027,0.0277,0.0272,0.0273,0.0274,0.0283,0.0285,0.0286,0.0293,0.0289,0.029,0.029,0.029,0.0301,0.0301,0,0,0,0,0,0,0.0246,0.0248,0.0264,0.0265,0.0256,0.0264,0.0266,0.027,0.0277,0.0278,0.0274,0.0274,0.0284,0.0285,0.0286,0.029,0.029,0.029,0.0291,0.0301,0.0301,0.0301,0,0,0,0,0,0,0.0245,0.0247,0.0264,0.0256,0.0259,0.0265,0.0269,0.027,0.0273,0.0279,0.028,0.0276,0.0284,0.0285,0.029,0.029,0.029,0.0291,0.0301,0.0301,0.0301,0.0298,0,0,0,0,0,0,0.0245,0.0247,0.0249,0.0256,0.0259,0.0268,0.0269,0.027,0.0274,0.0274,0.028,0.0281,0.0284,0.0289,0.029,0.0291,0.0291,0.0301,0.0301,0.0301,0.0298,0.0298,0.0297,0,0,0,0,0,0.0244,0.0248,0.025,0.0251,0.0262,0.0268,0.0269,0.0274,0.0274,0.0275,0.0279,0.0281,0.029,0.029,0.0291,0.0292,0.0301,0.0301,0.0301,0.0298,0.0298,0.0297,0,0,0,0,0,0,0.0241,0.0249,0.0251,0.0258,0.0262,0.0269,0.0272,0.0273,0.0278,0.0278,0.0282,0.0283,0.0287,0.029,0.0289,0.0294,0.0295,0.0296,0.0293,0.0292,0.0292,0.0291,0.0292,0,0,0,0,0,0.0241,0.0246,0.0253,0.0258,0.026,0.0265,0.0268,0.0271,0.0275,0.0277,0.0281,0.0285,0.0288,0.029,0.0294,0.0298,0.0298,0.0299,0.0299,0.0298,0.0299,0.0299,0.0299,0.0301,0.0301,0.0301,0,0,0.0242,0.0247,0.025,0.0258,0.0261,0.0265,0.0267,0.0272,0.0274,0.0278,0.0282,0.0285,0.0289,0.0293,0.0294,0.0295,0.0298,0.0298,0.0298,0.0298,0.0299,0.0299,0.0298,0.0301,0.0301,0.0301,0,0,0.0244,0.0249,0.0254,0.0257,0.0262,0.0265,0.0266,0.0272,0.0274,0.0279,0.0281,0.0283,0.029,0.0292,0.0294,0.0295,0.0297,0.0296,0.0295,0.0296,0.0295,0.0295,0.0294,0.0294,0.0296,0.0296,0.0296,0,0.0244,0.0251,0.0255,0.0259,0.0262,0.0265,0.0268,0.0271,0.0278,0.0279,0.0279,0.0286,0.0289,0.0293,0.0293,0.0295,0.0295,0.0296,0.0295,0.0295,0.0295,0.0294,0.0294,0.0296,0.0296,0.0296,0.0296,0,0.025,0.0254,0.0257,0.0262,0.0265,0.0269,0.0272,0.0275,0.0276,0.0279,0.0282,0.0286,0.0289,0.029,0.0292,0.0293,0.0293,0.0295,0.0296,0.0295,0.0294,0.0294,0.0296,0.0296,0.0296,0.0296,0,0,0.0252,0.0259,0.026,0.0261,0.0267,0.027,0.0273,0.0276,0.0277,0.0281,0.0282,0.0287,0.0287,0.029,0.0292,0.0292,0.0291,0.0293,0.0293,0.0291,0.029,0.0289,0.0289,0.0292,0.0292,0.0292,0.0289,0,0.0255,0.0261,0.0264,0.0268,0.0271,0.0273,0.0275,0.0278,0.028,0.0282,0.0284,0.0286,0.0288,0.0289,0.0289,0.0291,0.029,0.0291,0.0292,0.0292,0.029,0.0288,0.0288,0.0286,0.0289,0.0289,0.0289,0,0.0259,0.0262,0.0267,0.027,0.0271,0.0273,0.0276,0.0278,0.0281,0.0282,0.0283,0.0285,0.0286,0.0287,0.0288,0.0289,0.0289,0.029,0.029,0.029,0.029,0.0287,0.0285,0.0285,0.0289,0.0289,0.0289,0,0.0259,0.0264,0.0267,0.0269,0.0273,0.0274,0.0276,0.0278,0.0279,0.0281,0.0282,0.0284,0.0285,0.0285,0.0287,0.0287,0.0287,0.0289,0.0287,0.0287,0.0287,0.0287,0.0284,0.0288,0.0288,0.0288,0.0288,0,0.0261,0.0264,0.0267,0.0269,0.0271,0.0273,0.0275,0.0277,0.0278,0.0279,0.0281,0.0282,0.0284,0.0285,0.0286,0.0286,0.0286,0.0286,0.0287,0.0286,0.0286,0.0286,0.0286,0.0288,0.0288,0.0288,0.0288,0,0.0262,0.0264,0.0267,0.0271,0.0271,0.0272,0.0275,0.0275,0.0277,0.0278,0.0278,0.028,0.0281,0.0282,0.0284,0.0284,0.0283,0.0284,0.0283,0.0283,0.0281,0.0281,0.0278,0.0277,0.0282,0.0282,0.0282,0,0.0263,0.0265,0.0268,0.0269,0.027,0.0272,0.0273,0.0275,0.0276,0.0277,0.0278,0.0278,0.0279,0.028,0.0281,0.0281,0.0281,0.028,0.0281,0.028,0.028,0.0279,0.0279,0.028,0.028,0.0279,0.0279,0,0.0265,0.0265,0.0267,0.0269,0.027,0.0271,0.0272,0.0273,0.0275,0.0275,0.0276,0.0276,0.0277,0.0277,0.0277,0.0278,0.0278,0.0279,0.0278,0.0278,0.0276,0.0276,0.0281,0.0279,0.0279,0.0279,0.0279,0.0279,0.0265,0.0266,0.0267,0.0269,0.027,0.027,0.0271,0.0272,0.0273,0.0273,0.0274,0.0274,0.0275,0.0275,0.0275,0.0274,0.0275,0.0275,0.0274,0.0274,0.0273,0.0277,0.0274,0.0274,0.0274,0.0274,0.0274,0,0.0265,0.0266,0.0267,0.0269,0.0269,0.027,0.0271,0.0271,0.0271,0.0272,0.0272,0.0272,0.0271,0.0272,0.0271,0.027,0.027,0.027,0.027,0.027,0.0273,0.0273,0.027,0.027,0.027,0.027,0.027,0.027,0.0266,0.0267,0.0267,0.0268,0.0269,0.0269,0.0269,0.0269,0.0269,0.0269,0.0269,0.0269,0.0269,0.0268,0.0267,0.0267,0.0266,0.0266,0.0265,0.0269,0.0269,0.027,0.027,0.0266,0.0266,0.0262,0.0262,0.0262]}]]